Weather in Salamo

Papua New Guinea     9°40′00″S   150°47′34″E
temp.,
°C
wind,
m/s
gust,
m/s
humid.,
%
clouds,
%
prec.,
mm/h
press.,
hPa
HPBL,
m
18 october, mon
mon1801:00+27n3380100 1.8 1011149
04:00+27nw2278100 3.3 1011238
07:00+27n227691 0.3 1013261
10:00+29sse126945 0.4 1013536
13:00+28se127171 0.6 1011722
16:00+29ne337156 0.6 1010681
19:00+28ne447552 0.1 1012451
22:00+27ne447786 0.6 1013406
19 october, tue
tue1901:00+27nne337860 0.0 1011367
04:00+27nne337772 0.0 1012392
07:00+27ne2377100 0.9 1014306
10:00+29e3471100 1.0 1014638
13:00+29e447084 0.6 1011652
16:00+29e557175 0.6 1010646
19:00+28ene557779 0.0 1012589
22:00+28ene3478100 0.4 1013515
20 october, wed
wed2001:00+28ene337914 0.4 1010500
04:00+27ene127812 3.8 1010204
07:00+27e1278100 2.8 101287
10:00+28se2169100 3.3 1012470
13:00+28se2270100 0.4 1010593
16:00+29e2368100 0.4 1010735
19:00+28ene4473100 0.0 1011657
22:00+28ene3474100 0.0 1012545
21 october, thu
thu2101:00+27ne3376100 0.0 1010456
04:00+27ne127715 0.2 1010296
07:00+27ne117593 0.1 1012352
10:00+28se227256 0.1 1012488
13:00+28ese3371100 0.1 1010585
16:00+29e447010 0.1 1009761
19:00+28ene4475100 0.0 1011594
22:00+28ne45766 0.0 1012608
22 october, fri
fri2201:00+27ene447630 0.0 1011644
04:00+27e237736 0.0 1011501
07:00+27e2376100 0.1 1013447
10:00+28se2372100 0.1 1013506
13:00+28e557439 0.3 1011713
16:00+28ene56758 1.1 1010741
19:00+28ene667689 0.6 1012756
22:00+27ene5576100 0.8 1013679